Find Kosmos-2530

NORAD ID: 43751 Int'l Des: 2018-097 Owner: VVKOV Country: RU operational
LEOCIRCULARPOLAR

实时位置

正在加载3D地球...

关于 Kosmos-2530

正在加载描述...

即将过境

Passes for default location (London). Set your location on the main map for personalized predictions.

高度历史

Loading altitude history...

两行轨道根数

1 43751U 18097A 26106.31313894 .00000177 00000-0 12079-2 0 9998
2 43751 82.5102 260.6836 0019997 168.4573 191.6969 12.42880383334606
Epoch: Apr 16, 2026 • Age: 8 hours

当前状态

高度 1510.1 km
速度 7.11 km/s
星下点 18.04°N, 171.97°W
发射日期 Nov 30, 2018
运行时间 7.3 years
类型 other

技术详情

分类 Payload
质量 280.00 kg
干质量 280.00 kg
总质量 280.00 kg
长度 1.60 m
直径 0.80 m
跨度 7.00 m
形状 Cyl + Ant
制造商 RESH
平台类型 Strela-3M
阶段状态 In Orbit
所有者/国家 VVKOV/RU

Most Searched